Location: Pensacola
(30.4142°N, 87.2155°W)
Time: 19:59:29
(UTC-06:00)

Hubble Space Telescope - Visible Passes

Search period start: 19 February 2018 00:00
Search period end: 01 March 2018 00:00
Orbit: 537 x 541 km, 28.5° (Epoch: 19 February)

Date Brightness Start Highest point End Pass type
(mag) Time Alt. Az. Time Alt. Az. Time Alt. Az.
19 Feb 2.2 04:51:20 25° SSW 04:52:35 31° SSE 04:56:16 10° E visible
20 Feb 1.7 04:41:50 35° S 04:42:16 37° SSE 04:46:06 10° E visible
21 Feb 1.6 04:32:15 42° SSE 04:32:15 42° SSE 04:35:54 10° E visible
22 Feb 1.9 04:22:37 40° SE 04:22:37 40° SE 04:25:40 10° E visible
23 Feb 2.3 04:12:56 33° ESE 04:12:56 33° ESE 04:15:26 10° E visible
23 Feb 1.0 05:48:23 10° W 05:52:29 66° S 05:56:36 10° ESE visible
24 Feb 2.8 04:03:15 26° E 04:03:15 26° E 04:05:11 10° E visible
24 Feb 1.0 05:38:36 13° W 05:42:13 62° S 05:46:18 10° ESE visible
25 Feb 3.3 03:53:32 20° E 03:53:32 20° E 03:54:55 10° E visible
25 Feb 1.1 05:28:54 17° W 05:31:56 57° S 05:35:59 10° ESE visible
26 Feb 3.6 03:43:51 15° E 03:43:51 15° E 03:44:39 10° E visible
26 Feb 1.2 05:19:12 21° WSW 05:21:38 50° SSW 05:25:39 10° ESE visible
27 Feb 4.0 03:34:10 11° E 03:34:10 11° E 03:34:23 10° E visible
27 Feb 1.4 05:09:32 27° WSW 05:11:21 44° SSW 05:15:17 10° ESE visible
28 Feb 1.6 04:59:54 31° SW 05:01:02 37° SSW 05:04:52 10° SE visible
